Stündliche Wetter Ablis

Heute, 17 Juni, Donnerstag

Zeit Temperatur Niederschläge Wind Luftdruck Luftfeuchtigkeit
00:00 +19°C° 0.2 mm 3 m/S 743 mmHg 93%
01:00 +19°C° 0.6 mm 3 m/S 743 mmHg 93%
02:00 +19°C° 0.6 mm 3 m/S 743 mmHg 94%
03:00 +19°C° 0.6 mm 2 m/S 743 mmHg 95%
04:00 +19°C° 0 mm 3 m/S 743 mmHg 94%
05:00 +19°C° 0 mm 3 m/S 744 mmHg 93%
06:00 +20°C° 0 mm 3 m/S 744 mmHg 92%
07:00 +21°C° 0 mm 4 m/S 744 mmHg 84%
08:00 +23°C° 0 mm 4 m/S 745 mmHg 76%
09:00 +25°C° 0 mm 4 m/S 745 mmHg 68%
10:00 +26°C° 0 mm 4 m/S 745 mmHg 64%
11:00 +27°C° 0 mm 4 m/S 745 mmHg 59%
12:00 +29°C° 0 mm 3 m/S 745 mmHg 55%
13:00 +29°C° 0 mm 3 m/S 744 mmHg 54%
14:00 +29°C° 0 mm 3 m/S 744 mmHg 54%
15:00 +29°C° 0 mm 2 m/S 744 mmHg 54%
16:00 +26°C° 4.8 mm 2 m/S 744 mmHg 67%
17:00 +24°C° 4.8 mm 2 m/S 744 mmHg 81%
18:00 +20°C° 4.8 mm 2 m/S 745 mmHg 94%
19:00 +20°C° 1.5 mm 2 m/S 745 mmHg 95%
20:00 +19°C° 1.5 mm 2 m/S 745 mmHg 96%
21:00 +19°C° 1.5 mm 2 m/S 745 mmHg 97%
22:00 +19°C° 0 mm 2 m/S 745 mmHg 97%
23:00 +18°C° 0 mm 2 m/S 744 mmHg 97%

Morgen, 18 Juni, Freitag

Zeit Temperatur Niederschläge Wind Luftdruck Luftfeuchtigkeit
00:00 +19°C° 0 mm 1 m/S 744 mmHg 97%
01:00 +19°C° 0.2 mm 1 m/S 744 mmHg 97%
02:00 +19°C° 0.2 mm 1 m/S 744 mmHg 97%
03:00 +19°C° 0.2 mm 1 m/S 744 mmHg 97%
04:00 +18°C° 0.3 mm 2 m/S 744 mmHg 96%
05:00 +18°C° 0.3 mm 2 m/S 744 mmHg 96%
06:00 +19°C° 0.3 mm 2 m/S 744 mmHg 95%
07:00 +19°C° 0.2 mm 3 m/S 744 mmHg 93%
08:00 +20°C° 0.2 mm 4 m/S 744 mmHg 90%
09:00 +20°C° 0.2 mm 4 m/S 745 mmHg 88%
10:00 +21°C° 0.2 mm 5 m/S 745 mmHg 87%
11:00 +21°C° 0.2 mm 5 m/S 745 mmHg 86%
12:00 +21°C° 0.2 mm 5 m/S 745 mmHg 85%
13:00 +21°C° 0.3 mm 5 m/S 745 mmHg 86%
14:00 +20°C° 0.3 mm 5 m/S 746 mmHg 88%
15:00 +20°C° 0.3 mm 5 m/S 746 mmHg 90%
16:00 +19°C° 0.1 mm 5 m/S 746 mmHg 89%
17:00 +19°C° 0.1 mm 4 m/S 747 mmHg 89%
18:00 +18°C° 0.1 mm 4 m/S 747 mmHg 88%
19:00 +17°C° 0 mm 4 m/S 747 mmHg 89%
20:00 +15°C° 0 mm 4 m/S 748 mmHg 90%
21:00 +14°C° 0 mm 3 m/S 748 mmHg 91%
22:00 +14°C° 0 mm 3 m/S 748 mmHg 90%
23:00 +15°C° 0 mm 2 m/S 749 mmHg 88%

übermorgen, 19 Juni, Samstag

Zeit Temperatur Niederschläge Wind Luftdruck Luftfeuchtigkeit
00:00 +15°C° 0 mm 2 m/S 749 mmHg 86%
01:00 +15°C° 0 mm 2 m/S 749 mmHg 85%
02:00 +16°C° 0 mm 1 m/S 749 mmHg 85%
03:00 +16°C° 0 mm 1 m/S 749 mmHg 84%
04:00 +16°C° 0 mm 1 m/S 749 mmHg 84%
05:00 +16°C° 0 mm 1 m/S 749 mmHg 83%
06:00 +17°C° 0 mm 2 m/S 749 mmHg 82%
07:00 +18°C° 0 mm 2 m/S 749 mmHg 78%
08:00 +19°C° 0 mm 2 m/S 748 mmHg 74%
09:00 +21°C° 0 mm 3 m/S 748 mmHg 70%
10:00 +22°C° 0 mm 3 m/S 748 mmHg 66%
11:00 +25°C° 0 mm 4 m/S 747 mmHg 62%
12:00 +26°C° 0 mm 4 m/S 747 mmHg 58%
13:00 +26°C° 0 mm 4 m/S 746 mmHg 58%
14:00 +27°C° 0 mm 5 m/S 745 mmHg 57%
15:00 +28°C° 0 mm 5 m/S 745 mmHg 57%
16:00 +27°C° 0 mm 6 m/S 743 mmHg 62%
17:00 +26°C° 0 mm 6 m/S 742 mmHg 67%
18:00 +24°C° 0 mm 7 m/S 741 mmHg 72%
19:00 +22°C° 9.1 mm 7 m/S 741 mmHg 80%
20:00 +21°C° 9.1 mm 6 m/S 740 mmHg 88%
21:00 +19°C° 9.1 mm 6 m/S 740 mmHg 95%
22:00 +19°C° 3.1 mm 6 m/S 740 mmHg 96%
23:00 +17°C° 3.1 mm 6 m/S 741 mmHg 96%

20 Juni, Sonntag

Zeit Temperatur Niederschläge Wind Luftdruck Luftfeuchtigkeit
00:00 +17°C° 3.1 mm 5 m/S 741 mmHg 96%
01:00 +17°C° 0 mm 5 m/S 741 mmHg 95%
02:00 +17°C° 0 mm 5 m/S 741 mmHg 93%
03:00 +17°C° 0 mm 5 m/S 742 mmHg 91%
04:00 +17°C° 0 mm 5 m/S 742 mmHg 91%
05:00 +17°C° 0 mm 5 m/S 742 mmHg 91%
06:00 +18°C° 0 mm 4 m/S 742 mmHg 91%
07:00 +19°C° 0 mm 4 m/S 742 mmHg 86%
08:00 +20°C° 0 mm 4 m/S 742 mmHg 81%
09:00 +21°C° 0 mm 5 m/S 742 mmHg 75%
10:00 +22°C° 0.2 mm 5 m/S 742 mmHg 72%
11:00 +23°C° 0.2 mm 5 m/S 742 mmHg 68%
12:00 +25°C° 0.2 mm 4 m/S 742 mmHg 65%
13:00 +23°C° 0.8 mm 5 m/S 741 mmHg 67%
14:00 +23°C° 0.8 mm 5 m/S 741 mmHg 69%
15:00 +23°C° 0.8 mm 5 m/S 741 mmHg 71%
16:00 +22°C° 0.7 mm 4 m/S 741 mmHg 76%
17:00 +21°C° 0.7 mm 4 m/S 741 mmHg 80%
18:00 +20°C° 0.7 mm 3 m/S 741 mmHg 85%
19:00 +19°C° 0.2 mm 3 m/S 741 mmHg 87%
20:00 +18°C° 0.2 mm 2 m/S 742 mmHg 89%
21:00 +17°C° 0.2 mm 2 m/S 742 mmHg 92%
22:00 +16°C° 0 mm 2 m/S 742 mmHg 92%
23:00 +16°C° 0 mm 2 m/S 742 mmHg 92%

21 Juni, Montag

Zeit Temperatur Niederschläge Wind Luftdruck Luftfeuchtigkeit
00:00 +16°C° 0 mm 2 m/S 742 mmHg 92%
01:00 +15°C° 0 mm 1 m/S 742 mmHg 92%
02:00 +15°C° 0 mm 1 m/S 742 mmHg 91%
03:00 +14°C° 0 mm 0 m/S 741 mmHg 91%
04:00 +16°C° 0.1 mm 1 m/S 741 mmHg 91%
05:00 +16°C° 0.1 mm 1 m/S 741 mmHg 91%
06:00 +18°C° 0.1 mm 1 m/S 741 mmHg 90%
07:00 +18°C° 0.1 mm 2 m/S 741 mmHg 85%
08:00 +20°C° 0.1 mm 3 m/S 741 mmHg 79%
09:00 +21°C° 0.1 mm 5 m/S 741 mmHg 73%
10:00 +22°C° 0 mm 5 m/S 742 mmHg 67%
11:00 +23°C° 0 mm 6 m/S 742 mmHg 62%
12:00 +24°C° 0 mm 7 m/S 742 mmHg 56%
13:00 +23°C° 0 mm 7 m/S 742 mmHg 57%
14:00 +23°C° 0 mm 6 m/S 742 mmHg 57%
15:00 +23°C° 0 mm 6 m/S 742 mmHg 58%
16:00 +22°C° 0.3 mm 6 m/S 742 mmHg 64%
17:00 +21°C° 0.3 mm 5 m/S 742 mmHg 71%
18:00 +19°C° 0.3 mm 5 m/S 743 mmHg 77%
19:00 +18°C° 0 mm 4 m/S 743 mmHg 81%
20:00 +17°C° 0 mm 3 m/S 743 mmHg 84%
21:00 +16°C° 0 mm 3 m/S 743 mmHg 88%
22:00 +15°C° 0 mm 4 m/S 743 mmHg 86%
23:00 +14°C° 0 mm 5 m/S 743 mmHg 84%

22 Juni, Dienstag

Zeit Temperatur Niederschläge Wind Luftdruck Luftfeuchtigkeit
00:00 +14°C° 0 mm 6 m/S 743 mmHg 82%
01:00 +14°C° 0 mm 6 m/S 743 mmHg 85%
02:00 +14°C° 0 mm 5 m/S 743 mmHg 87%
03:00 +14°C° 0 mm 5 m/S 743 mmHg 90%
04:00 +14°C° 0 mm 5 m/S 743 mmHg 90%
05:00 +14°C° 0 mm 6 m/S 744 mmHg 89%
06:00 +15°C° 0 mm 6 m/S 744 mmHg 89%
07:00 +16°C° 0.1 mm 6 m/S 744 mmHg 84%
08:00 +17°C° 0.1 mm 6 m/S 744 mmHg 80%
09:00 +17°C° 0.1 mm 7 m/S 745 mmHg 76%
10:00 +18°C° 0.2 mm 7 m/S 745 mmHg 73%
11:00 +18°C° 0.2 mm 7 m/S 745 mmHg 70%
12:00 +20°C° 0.2 mm 7 m/S 746 mmHg 67%
13:00 +20°C° 0 mm 6 m/S 746 mmHg 65%
14:00 +21°C° 0 mm 6 m/S 746 mmHg 64%
15:00 +21°C° 0 mm 6 m/S 746 mmHg 62%
16:00 +20°C° 0.3 mm 5 m/S 746 mmHg 68%
17:00 +20°C° 0.3 mm 5 m/S 746 mmHg 74%
18:00 +19°C° 0.3 mm 4 m/S 747 mmHg 79%
19:00 +17°C° 0.1 mm 4 m/S 747 mmHg 84%
20:00 +16°C° 0.1 mm 3 m/S 747 mmHg 88%
21:00 +14°C° 0.1 mm 3 m/S 748 mmHg 92%
22:00 +13°C° 0 mm 3 m/S 748 mmHg 92%
23:00 +13°C° 0 mm 3 m/S 749 mmHg 93%
Mehr zeigen

Wir brauchen deine Erlaubnis

Meteoprog und unser Service Anbieter werden persönliche Daten aufbewahren, so wie Cookies, Geräte Bezeichnung oder ähnliche Technologien von deinem Gerät und Prozess, so wie Persönliche Daten Inhalte und Werbungen, genauso wie social Media und den Verkehr zu analysieren.

  • Aufbewahrung und/oder Zugang zu deiner Geräte Informationen.

    Cookies, Geräte Bezeichnung oder andere Informationen, können aufbewahrt oder Zugang zu deinem Gerät erhalten, für den Grund, der oben angegeben wird.

  • Personalisierte Werbung und Inhalte, Messungen, Einblick in das Publikum und Produkt Entwicklung.

    Werbungen und Inhalte können personalisiert werden, basierend auf ein Profil. Mehr Daten können besser personalisierte Werbungen und Inhalte hinzufügen. Werbung und Inhalte können gezeigt und gemessen werden. Einblicke über das Publikum, welche die Werbung gesehen haben und den Inhalt, können abgeleitet werden. So wie Daten können genutzt werden, um es zu verbessern oder die Benutzer Erfahrung zu verbessern das System und die Software.

Wenn du “Ich stimme zu” klickst, erlaubst du uns, die Cookies zu benutzen die Geräte Bezeichnung, den Web oder ähnliche Technologien zu benutzen. Deine Settings, können in deinem Gerät bei deinem Browser geändert werden.

Für den bestimmten Zweck, berechtigten Interessen beruhen darauf, mehr als auf den Inhalt. Du kannst mehr darüber in unseren Privaten und Cookie Politik lesen.